Weather in Duakar

Russia / Republic of Dagestan     42°03′51″N   47°27′38″E
temp.,
°C
wind,
m/s
gust,
m/s
humid.,
%
clouds,
%
prec.,
mm/h
press.,
hPa
HPBL,
m
16 june, wed
wed1600:00+11sw33560 0.0 101416
03:00+11ssw33530 0.0 101518
06:00+15ssw22640 0.0 101441
09:00+20ene33560 0.0 1012621
12:00+22ene44600 0.0 1010856
15:00+21e44693 1.3 1010515
18:00+19e22790 0.1 101096
21:00+15ssw54640 0.1 101240
17 june, thu
thu1700:00+14ssw44560 0.0 101236
03:00+14ssw54410 0.0 101137
06:00+15ssw54570 0.0 101052
09:00+23s12340 0.0 1007824
12:00+24ene33460 0.0 10071077
15:00+21nne54605 0.7 1010701
18:00+17n338219 1.1 1014547
21:00+12sw11905 1.4 101712
18 june, fri
fri1800:00+11ssw22890 0.3 101814
03:00+10ssw229126 0.6 101918
06:00+13se11843 0.0 1018112
09:00+17ene336816 0.0 1017961
12:00+18ene437785 1.2 1017690
15:00+16ene338778 4.8 1018552
18:00+13ne229993 2.6 1020132
21:00+12w229512 4.8 102138
19 june, sat
sat1900:00+11sw22830 0.0 102112
03:00+10ssw32760 0.0 102115
06:00+14ssw22710 0.0 102149
09:00+18ene32630 0.0 1020669
12:00+20ene54654 0.0 10191036
15:00+20ene446917 0.3 1019847
18:00+17ene22820 0.2 1020324
21:00+13ssw22890 0.2 102215
20 june, sun
sun2000:00+12ssw33600 0.0 102223
03:00+12ssw33550 0.0 102221
06:00+14ssw32640 0.0 102141
09:00+21e33450 0.0 1019776
12:00+22ene45480 0.0 1018783
15:00+21ene45540 0.0 1017796
18:00+18e33780 0.0 1018216
21:00+14ssw33650 0.0 101922